CZ-3C DEB, 40204

Orbit data source: Space-Track

CZ-3C DEB, 40204 is space debris in HEO originally from a launch on Fri, 24 Feb 2012 UTC launched from the Xichang Space Center, China (XSC). Debris objects in space refer to the collection of defunct objects orbiting the Earth. Examples of debris include non-operational satellites, rocket bodies, and fragments generated from explosions, collisions, or faulty payload assembly.

Loading next visibility...
Identifier
40204, 2012-008P
Orbit
HEO
Country
Flag of CNCN / PRC
Related business
Manufacturer
CALT
Mission
Spacecraft
Bus & Motor
Unknown
Mass
Unknown
Launch date (UTC)
2012-02-24 (14 years ago)
Launch vehicle
Unknown
Launch site
Xichang Space Center, China (XSC)
Object type
Payload
Rocket body
Debris
Shape & HBR
Unknown shape, 0.1 m
Radar Cross Section
Medium (>0.1 m² and <1 m²)

Expand to show TLE details & history
Last TLE update: 3 days ago

TLE from 3 days ago
0 CZ-3C DEB
1 40204U 12008P   26020.75844540 -.00000226  00000-0 -60866-2 0  9998
2 40204  20.4440  64.6849 7085330 130.9221 316.0140  2.27005814 93362
Epoch: 2026-01-20T18:12Z
TLE epoch observation values (Epoch: 2026-01-20T18:12:09.682Z)
Latitude
-0.00004°
Longitude
31.55275°
Altitude
16,328.301 km
Speed
4.337 km/s
True Right ascension
04h 18m 54s
True Declination
0° 00' 00"
Sunlit
Object was in daylight at epoch
Visualization orbit readout
Latitude
Unknown
Longitude
Unknown
Altitude
Unknown
Speed
Unknown
Apparent Right ascension
Unknown
Apparent Declination
Unknown
Sunlit
N/A
Visualization observer readout
Local Sidereal Time
04:36:33
Azimuth
Unknown
Elevation
Unknown
Doppler factor
Unknown
Orbital elements
Apogee altitude
35,412.133 km
Perigee altitude
751.07 km
Semi-major axis
24,459.738 km
Eccentricity
0.70853
Inclination
20.444°
RAAN
64.6849°
Arg. of periapsis
130.9221°
True anomaly
228.9891°
Mean anomaly
316.014°
Eccentric anomaly
275.61268°
Mean motion
0.56737 °/min
Orbital period
634.51 mins
BSTAR
-0.0060866
Loading maneuver chart data...
Computing Atmospheric mass density...
Loading historical data...
Loading historical data...
Loading historical data...
Loading historical data...
Loading historical data...
Loading historical data...
Loading historical data...

Documentation

Showing up to 5 results
|